OPS 6983 (DMSP 5C F1)

Satellite information

Favourite Embed

Satellite Type and Status

PAYLOADIN ORBIT

Key statistics

Satellite OPS 6983 (DMSP 5C F1) at a glance.

Uptime

18755

Days in orbit

Revolutions

≈ 14.3

Per day

Orbit

SSO

Sun Synchronous Orbit

Inclination

98.5

Latest

Satellite identification and parameters

Extended collection of information and parameters for OPS 6983 (DMSP 5C F1).

Object identification

Identified? True

Debris? False

Object name: OPS 6983 (DMSP 5C F1)

International designator: 1974-063A

Object number (NORAD): 7411

Object ID (CCSDS): 7411

Country: UNITED STATES OF AMERICA (US)

Current information (Y/N): Y

RCS size: LARGE

Orbital parameters

Period: 100.731 minutes

Inclination: 98.5259 deg

SMA: 7171.359 km

Apoapsis: 822.317 km

Periapsis: 764.13 km

RAAN: 187.2809 deg

Eccentricy: 0.00405694

Argument of periapsis: 196.58 deg

Mean anomaly: 163.4058 deg

Mean motion: 14.29554078 rev/day

Mean motion (dot): 0.00000531 rev/day2

B* drag term: 0.00022264231 1/REarth

Two-line elements (TLE)

Creation date: Dec. 12, 2025, 10:14 a.m.

Reference frame: TEME

Reference center: EARTH

Epoch: Dec. 12, 2025, 6:37 a.m. UTC

TLE line 0: 0 OPS 6983 (DMSP 5C F1)

TLE line 1: 1 07411U 74063A 25346.27618562 .00000531 00000-0 22264-3 0 9998

TLE line 2: 2 07411 98.5259 187.2809 0040569 196.5800 163.4058 14.29554078667664

Live tracking on map

Real-time ground track for satellite OPS 6983 (DMSP 5C F1).

In-orbit conjunctions

There are no conjunctions computed for OPS 6983 (DMSP 5C F1), at the moment. Check back to stay up to date, as we update our databases every day.

Go to all conjunctions

Associated space launch

Military meteorological satellite

OPS 6983 (DMSP 5C F1) was lifted into orbit during the mission ‘Thor Burner 2A | DMSP-5C F1’, on board a Thor Burner 2A space rocket.

The launch took place on Aug. 9, 1974, 3:22 a.m. from Space Launch Complex 10W.

For more information about the launch, click the button.

Launch to space Thor Burner 2A | DMSP-5C F1
Thor Burner 2A | DMSP-5C F1

Agency: N/A

Status: Launch Successful

Launch date: Aug. 9, 1974, 3:22 a.m. UTC

Rocket: Thor Burner 2A

Launch pad: Space Launch Complex 10W

Location: Vandenberg SFB, CA, USA

...

Latest news about this satellite

There are no fresh news available about this satellite. Check back as we update our databases every day.


Newsletter sign-up

Weekly statistics, charts and insights to help you stay on top of the space industry.